ASIASAT 5

Last updated on Wed Sep 17 2025 00:02:47 GMT+0000 (Coordinated Universal Time)

1 35696U 09042A 25259.64980956 -.00000327 00000+0 00000+0 0 9995 2 35696 0.0295 241.7202 0001843 272.2211 176.3328 1.00273522 58968
UTC large
Height (km)
Speed (km/s)
/
Latitude / Longitude
Inclination (degrees)
Orbital Period (minutes)
Azimuth
Elevation
Range (km)
Doppler Factor

Next 0 passes for location: London (51.5072 / 0.1276)

Sorry there are no passes over London.